Location: Poughquag
(41.6090°N, 73.6820°W)
Time: 03:30:47
(UTC-04:00)

Vanguard 1 - Pass Details

Date: 03 June 2020
Orbit: 650 x 3833 km, 34.2° (Epoch: 06 July)

Event Time Altitude Azimuth Distance (km) Brightness Sun altitude
Rises 09:09:53 0° 271° (W) 6,802 13.9 39.9°
Reaches altitude 10° 09:13:54 10° 269° (W) 6,095 13.7 40.7°
Maximum altitude 09:34:53 67° 193° (SSW) 4,030 13.8 44.6°
Drops below altitude 10° 09:56:46 10° 117° (ESE) 6,304 15.1 48.6°
Sets 10:01:01 0° 115° (ESE) 7,033 15.1 49.4°
